This demonstration page uses our WeatherBlox Daily Observations layout. Learn more.

Left ArrowRight Arrow

39.29038, -76.61219

Hourly Observations for December 10, 2020

Temp ( °F °C ) Dew Point ( °F °C ) Humidity (%) Winds ( mph kmh ) Pressure ( in mb ) Visibility ( mi km ) Precip ( " mm )
12:54 am 00:54 Clear 30 -1.1 24 -4.4 79 79 W 3 6 29.95 1014 10 16 0.00 0.00
1:54 am 01:54 Clear 29 -1.7 24 -4.4 82 82 WSW 3 6 29.96 1015 10 16 0.00 0.00
2:54 am 02:54 Clear 30 -1.1 24 -4.4 79 79 WNW 3 6 29.99 1016 10 16 0.00 0.00
3:54 am 03:54 Clear 28 -2.2 24 -4.4 85 85 W 3 6 30.02 1017 10 16 0.00 0.00
4:54 am 04:54 Clear 31 -0.6 25 -3.9 79 79 Calm 30.04 1017 10 16 0.00 0.00
5:54 am 05:54 Clear 28 -2.2 23 -5 81 81 WSW 3 6 30.07 1018 10 16 0.00 0.00
6:54 am 06:54 Mostly Clear 31 -0.6 25 -3.9 79 79 Calm 30.10 1019 9 14 0.00 0.00
7:54 am 07:54 Sunny 28 -2.2 24 -4.4 85 85 VRB 3 6 30.12 1020 7 11 0.00 0.00
8:54 am 08:54 Sunny 37 2.8 29 -1.7 73 73 W 3 6 30.14 1021 7 11 0.00 0.00
9:54 am 09:54 Sunny 44 6.7 32 0 63 63 Calm 30.16 1021 8 13 0.00 0.00
10:54 am 10:54 Sunny 49 9.4 32 0 52 52 VRB 5 7 30.16 1021 10 16 0.00 0.00
11:54 am 11:54 Sunny 50 10 32 0 50 50 WNW 5 7 30.15 1021 10 16 0.00 0.00
12:54 pm 12:54 Sunny 51 10.6 32 0 48 48 SW 3 6 30.14 1021 10 16 0.00 0.00
1:54 pm 13:54 Sunny 52 11.1 33 0.6 49 49 SW 7 11 30.13 1020 10 16 0.00 0.00
2:54 pm 14:54 Sunny 53 11.7 33 0.6 47 47 VRB 3 6 30.13 1020 10 16 0.00 0.00
3:54 pm 15:54 Sunny 52 11.1 32 0 47 47 Calm 30.16 1021 10 16 0.00 0.00
4:54 pm 16:54 Clear 47 8.3 32 0 56 56 Calm 30.17 1022 10 16 0.00 0.00
5:54 pm 17:54 Mostly Clear 42 5.6 32 0 68 68 ESE 3 6 30.19 1022 10 16 0.00 0.00
6:54 pm 18:54 Clear 43 6.1 34 1.1 71 71 SSE 6 9 30.20 1023 7 11 0.00 0.00
7:54 pm 19:54 Clear 40 4.4 33 0.6 77 77 Calm 30.21 1023 7 11 0.00 0.00
8:54 pm 20:54 Clear 37 2.8 31 -0.6 79 79 Calm 30.21 1023 7 11 0.00 0.00
9:54 pm 21:54 Clear with Mist and Fog 35 1.7 31 -0.6 85 85 Calm 30.21 1023 6 10 0.00 0.00
10:54 pm 22:54 Clear with Mist and Fog 32 0 29 -1.7 88 88 Calm 30.22 1023 6 10 0.00 0.00
11:54 pm 23:54 Clear with Mist and Fog 34 1.1 30 -1.1 85 85 Calm 30.22 1023 6 10 0.00 0.00

Powered by AerisWeather